Regional Weather Roundup
Issued by NWS Columbia, SC

Current Version | Previous Version | Text Only | Print | Product List | Glossary On
Versions: 1 2 3 4 5 6 7 8 9 10 11 12 13 14 15 16 17 18 19 20 21 22 23 24 25 26 27 28
000
ASUS42 KCAE 250010
RWRCAE
REGIONAL WEATHER ROUNDUP
NATIONAL WEATHER SERVICE COLUMBIA SC
800 PM EDT WED MAY 24 2017

NOTE: "FAIR" INDICATES FEW OR NO CLOUDS BELOW 12,000 FEET WITH NO
SIGNIFICANT WEATHER AND/OR OBSTRUCTIONS TO VISIBILITY.

NOT ALL STATIONS ARE QUALITY CONTROLLED BY THE NATIONAL
WEATHER SERVICE. USE DATA WITH CAUTION...ESPECIALLY
DEWPOINT OBSERVATIONS.

SCZ001>056-GAZ040-063>065-077-250100-
...UPSTATE SOUTH CAROLINA...

CITY           SKY/WX    TMP DP  RH WIND       PRES   REMARKS
ANDERSON       CLOUDY    64  62  93 S6        29.49R
6HR MIN TEMP:  63; 6HR MAX TEMP:  71; 6HR PCP:  0.46;

SPARTANBURG    CLOUDY    66  63  88 S5        29.49R
CLEMSON        CLOUDY    67  62  84 CALM      29.50R
6HR MIN TEMP:  65; 6HR MAX TEMP:  75; 6HR PCP:  0.32;

GREENVILLE     LGT RAIN  64  60  87 S7        29.50S
6HR MIN TEMP:  64; 6HR MAX TEMP:  76; 6HR PCP:  0.19;

GREENWOOD      CLOUDY    69  65  86 S8G18     29.50R
6HR MIN TEMP:  66; 6HR MAX TEMP:  71; 6HR PCP:  0.40;

GREER          LGT RAIN  62  60  93 S8        29.49R FOG
6HR MIN TEMP:  62; 6HR MAX TEMP:  74; 6HR PCP:  0.19;

ROCK HILL      CLOUDY    65  64  97 S5        29.52R
6HR MIN TEMP:  65; 6HR MAX TEMP:  74; 6HR PCP:  0.66;

CHESTER        CLOUDY    64  64 100 S8        29.52R
LAURENS        CLOUDY    68  64  88 SW6       29.50R


...CENTRAL SOUTH CAROLINA...

CITY           SKY/WX    TMP DP  RH WIND       PRES   REMARKS
COLUMBIA APT   CLOUDY    71  65  81 S7        29.48F
6HR MIN TEMP:  69; 6HR MAX TEMP:  77; 6HR PCP:  0.82;

COLUMBIA OWENS CLOUDY    71  66  84 VRB7      29.50F
6HR MIN TEMP:  70; 6HR MAX TEMP:  76; 6HR PCP:  0.27;

MCENTIRE ANGB  CLOUDY    70  66  88 S6        29.51F
6HR MIN TEMP:  69; 6HR MAX TEMP:  76; 6HR PCP:  0.18;

ORANGEBURG     LGT RAIN  70  67  90 S10       29.52F
6HR MIN TEMP:  70; 6HR MAX TEMP:  77; 6HR PCP:  0.17;

SUMTER SHAW    MOCLDY    71  65  82 S9        29.50F
6HR MIN TEMP:  70; 6HR MAX TEMP:  77; 6HR PCP:  0.81;

NEWBERRY       CLOUDY    68  66  94 S3        29.53R
AIKEN          MOCLDY    66  64  94 S7        29.53R
BARNWELL       DRIZZLE   72  68  88 S9        29.52R
MANNING        CLOUDY    72  70  94 S22       29.54S
CAMDEN         MOCLDY    68  66  94 CALM      29.52F
LANCASTER      CLOUDY    64  64 100 E5        29.52S
WINNSBORO      CLOUDY    66  64  94 SE7       29.50S


...EASTERN AND COASTAL SOUTH CAROLINA...

CITY           SKY/WX    TMP DP  RH WIND       PRES   REMARKS
MYRTLE BEACH   LGT RAIN  73  68  83 S17       29.60F
N MYRTLE BCH   LGT RAIN  73  68  84 S16G24    29.60S
6HR MIN TEMP:  73; 6HR MAX TEMP:  79; 6HR PCP:  0.02;

CONWAY         LGT RAIN  70  66  88 S5        29.59S
MARION         CLOUDY    72  64  78 S8        29.58S
HARTSVILLE     CLOUDY    68  64  88 SE6       29.53F
FLORENCE       CLOUDY    70  67  90 SE7       29.55F
6HR MIN TEMP:  70; 6HR MAX TEMP:  79; 6HR PCP:  0.37;

DARLINGTON     CLOUDY    70  66  87 SE6       29.55F
6HR MIN TEMP:  67; 6HR MAX TEMP:  77; 6HR PCP:  0.84;

CHARLESTON APT CLOUDY    73  69  87 S10       29.55F
6HR MIN TEMP:  69; 6HR MAX TEMP:  76; 6HR PCP:  0.15;

MOUNT PLEASANT FAIR      75  70  83 S12G22    29.56S
WALTERBORO     CLOUDY    72  68  88 S8        29.54F
BEAUFORT       CLOUDY    74  71  91 SW12G22   29.54S
6HR MIN TEMP:  70; 6HR MAX TEMP:  75; 6HR PCP:  0.24;



...EASTERN GEORGIA...

CITY           SKY/WX    TMP DP  RH WIND       PRES   REMARKS
AUGUSTA BUSH F CLOUDY    71  68  90 S9        29.50R
6HR MIN TEMP:  71; 6HR MAX TEMP:  80; 6HR PCP:  0.69;

AUGUSTA DANIEL CLOUDY    70  66  87 S10       29.51R
6HR MIN TEMP:  70; 6HR MAX TEMP:  78; 6HR PCP:  0.66;

THOMSON        MOCLDY    69  67  93 W7        29.54S
6HR MIN TEMP:  67; 6HR MAX TEMP:  70; 6HR PCP:  0.44;

WASHINGTON     MOCLDY    70  70 100 NW5       29.49S
CLAXTON        LGT RAIN N/A N/A N/A SW5       29.54S
SYLVANIA       LGT RAIN  66  65  99 W6        29.55S
6HR MIN TEMP:  65; 6HR MAX TEMP:  74;

STATESBORO     LGT RAIN  66  66 100 SW5       29.54F
6HR MIN TEMP:  66; 6HR MAX TEMP:  74;

SAVANNAH       CLOUDY    74  68  81 SW9       29.55F
6HR MIN TEMP:  71; 6HR MAX TEMP:  77; 6HR PCP:  0.29;



...SOUTHERN NORTH CAROLINA...

CITY           SKY/WX    TMP DP  RH WIND       PRES   REMARKS
CHARLOTTE      CLOUDY    66  62  87 SE9       29.52F
6HR MIN TEMP:  66; 6HR MAX TEMP:  75; 6HR PCP:  0.52;

MONROE         CLOUDY    65  62  90 VRB3      29.52S
6HR MIN TEMP:  64; 6HR MAX TEMP:  74; 6HR PCP:  0.41;

ROCKINGHAM     CLOUDY    67  67 100 SE3       29.55F
RUTHERFORDTON  HVY RAIN  63  63  99 N8        29.50R
ASHEVILLE      LGT RAIN  61  57  87 S6        29.52R
6HR MIN TEMP:  60; 6HR MAX TEMP:  71; 6HR PCP:  0.30;


$$




USA.gov is the U.S. government's official web portal to all federal, state and local government web resources and services.